{"data":{"norad_id":81537,"epoch":"2026-09-18T07:53:26.347488Z","epoch_age_seconds":202256,"freshness":"STALE","line1":"1 81537U          26261.32877717 -.00000066  00000+0 -11538-4 0  9998","line2":"2 81537  71.0368 250.7246 0074653  90.7722 270.1951 14.07251924659795","mean_motion":14.07251924,"eccentricity":0.0074653,"inclination_deg":71.0368,"raan_deg":250.7246,"arg_perigee_deg":90.7722,"mean_anomaly_deg":270.1951,"bstar":-1.1538e-5,"rev_number":65979,"period_min":102.32709406479,"perigee_km":814.69041019743,"apogee_km":922.89139191695,"semimajor_km":7246.9279010572,"source":"CELESTRAK","updated_at":"2026-09-20T09:00:32.390578Z"}}